S54MI-13 Weather Reports


Display with metric or nautical units.
time (UTC)temp
F
wind
direction
speed
MPH
gust
MPH
rain 1hr
in
rain 24hr
in
rain mn
in
humidity
%
barometer
mb
20260507202045 58 198 2.0 2.0 0.00 0.00 0.00 79
20260507200815 58 202 1.0 3.0 0.00 0.00 0.00 78
20260507195623 58 197 1.0 3.0 0.00 0.00 0.00 78
20260507194425 58 135 2.0 3.0 0.00 0.00 0.00 78
20260507193221 58 90 0.0 2.0 0.00 0.00 0.00 77
20260507192054 59 113 0.0 2.0 0.00 0.00 0.00 77
20260507190834 60 135 2.0 3.0 0.00 0.00 0.00 76
20260507185625 60 108 1.0 2.0 0.00 0.00 0.00 75
20260507184417 60 135 1.0 2.0 0.00 0.00 0.00 74
20260507183223 61 132 1.0 2.0 0.00 0.00 0.00 73
20260507182015 62 0.0 1.0 0.00 0.00 0.00 72
20260507180835 62 0.0 1.0 0.00 0.00 0.00 71
20260507175647 63 199 2.0 3.0 0.00 0.00 0.00 68
20260507174417 64 197 1.0 3.0 0.00 0.00 0.00 68
20260507173225 64 216 2.0 4.0 0.00 0.00 0.00 68
20260507172037 65 220 3.0 4.0 0.00 0.00 0.00 69
20260507170834 66 217 3.0 4.0 0.00 0.00 0.00 65
20260507165634 66 225 3.0 4.0 0.00 0.00 0.00 64
20260507164421 67 235 3.0 6.0 0.00 0.00 0.00 62
20260507163227 67 195 3.0 5.0 0.00 0.00 0.00 61
20260507162039 67 222 4.0 6.0 0.00 0.00 0.00 60
20260507160853 68 188 4.0 5.0 0.00 0.00 0.00 61
20260507155734 68 199 4.0 6.0 0.00 0.00 0.00 59
20260507154443 69 181 4.0 7.0 0.00 0.00 0.00 59
20260507153215 69 240 4.0 7.0 0.00 0.00 0.00 58
20260507152018 70 223 4.0 8.0 0.00 0.00 0.00 56
20260507150907 70 227 3.0 6.0 0.00 0.00 0.00 58
20260507145627 70 227 4.0 6.0 0.00 0.00 0.00 56
20260507144425 71 235 4.0 9.0 0.00 0.00 0.00 58
20260507143217 71 236 5.0 11.0 0.00 0.00 0.00 57
20260507142034 71 229 6.0 10.0 0.00 0.00 0.00 55
20260507140829 71 245 2.0 6.0 0.00 0.00 0.00 60
20260507135621 72 219 4.0 11.0 0.00 0.00 0.00 59
20260507134433 72 194 4.0 7.0 0.00 0.00 0.00 60
20260507133219 71 242 4.0 8.0 0.00 0.00 0.00 62
20260507132025 70 217 5.0 6.0 0.00 0.00 0.00 62
20260507130831 70 231 6.0 10.0 0.00 0.00 0.00 61
20260507125619 71 204 5.0 8.0 0.00 0.00 0.00 64
20260507124429 70 235 6.0 9.0 0.00 0.00 0.00 64
20260507123221 70 191 5.0 7.0 0.00 0.00 0.00 66
20260507122027 70 218 5.0 11.0 0.00 0.00 0.00 67
20260507120819 69 191 6.0 8.0 0.00 0.00 0.00 69
20260507115615 70 214 4.0 6.0 0.00 0.00 0.00 70
20260507114417 70 209 5.0 7.0 0.00 0.00 0.00 66
20260507113223 71 186 5.0 7.0 0.00 0.00 0.00 66
20260507112027 70 225 6.0 10.0 0.00 0.00 0.00 65
20260507110853 70 215 4.0 6.0 0.00 0.00 0.00 66
20260507105627 70 178 6.0 7.0 0.00 0.00 0.00 67
20260507104433 69 206 5.0 9.0 0.00 0.00 0.00 67
20260507103220 69 193 5.0 9.0 0.00 0.00 0.00 69
20260507102017 69 212 4.0 6.0 0.00 0.00 0.00 70
20260507100832 68 198 6.0 9.0 0.00 0.00 0.00 71
20260507095629 67 214 5.0 9.0 0.00 0.00 0.00 73
20260507094432 67 186 4.0 7.0 0.00 0.00 0.00 73
20260507093216 66 215 6.0 10.0 0.00 0.00 0.00 73
20260507092039 67 216 5.0 6.0 0.00 0.00 0.00 75
20260507090825 65 192 6.0 7.0 0.00 0.00 0.00 76
20260507085631 65 170 6.0 9.0 0.00 0.00 0.00 77
20260507084433 65 210 7.0 9.0 0.00 0.00 0.00 77
20260507083215 64 202 6.0 11.0 0.00 0.00 0.00 78
20260507082021 65 183 8.0 9.0 0.00 0.00 0.00 78
20260507080822 66 229 7.0 13.0 0.00 0.00 0.00 78
20260507075619 67 209 5.0 6.0 0.00 0.00 0.00 79
20260507074425 65 215 5.0 7.0 0.00 0.00 0.00 82
20260507073237 64 172 4.0 6.0 0.00 0.00 0.00 84
20260507072023 63 183 4.0 6.0 0.00 0.00 0.00 86
20260507070817 63 197 5.0 7.0 0.00 0.00 0.00 87
20260507065621 62 168 4.0 6.0 0.00 0.00 0.00 88
20260507064432 62 206 4.0 6.0 0.00 0.00 0.00 89
20260507063232 61 182 5.0 8.0 0.00 0.00 0.00 90
20260507062025 61 188 5.0 6.0 0.00 0.00 0.00 90
20260507060817 61 198 5.0 6.0 0.00 0.00 0.00 91
20260507055623 60 171 4.0 8.0 0.00 0.00 0.00 91
20260507054415 60 174 4.0 6.0 0.00 0.00 0.00 91
20260507053312 59 167 4.0 6.0 0.00 0.00 0.00 91
20260507052024 59 145 3.0 8.0 0.00 0.00 0.00 91
20260507050832 59 171 2.0 3.0 0.00 0.00 0.00 91
20260507045645 59 210 2.0 4.0 0.00 0.00 0.00 91
20260507044438 59 170 3.0 6.0 0.00 0.00 0.00 91
20260507043223 59 144 5.0 9.0 0.00 0.00 0.00 92
20260507042045 59 162 4.0 8.0 0.00 0.00 0.00 92
20260507040821 59 182 4.0 9.0 0.00 0.00 0.00 92
20260507035631 59 173 4.0 6.0 0.00 0.00 0.00 92
20260507034432 59 177 3.0 6.0 0.00 0.00 0.00 92
20260507033225 59 151 3.0 4.0 0.00 0.00 0.00 92
20260507032024 59 150 2.0 3.0 0.00 0.00 0.00 92
20260507030831 59 145 2.0 5.0 0.00 0.00 0.00 92
20260507025615 59 181 3.0 4.0 0.00 0.00 0.00 92
20260507024451 59 196 2.0 3.0 0.00 0.00 0.00 92
20260507023227 59 178 3.0 4.0 0.00 0.00 0.00 92
20260507022040 59 185 3.0 4.0 0.00 0.00 0.00 92
20260507020826 59 187 2.0 3.0 0.00 0.00 0.00 91
20260507015617 60 197 4.0 7.0 0.00 0.00 0.00 92
20260507014451 60 225 3.0 4.0 0.00 0.00 0.00 91
20260507013309 60 168 3.0 6.0 0.00 0.00 0.00 91
20260507012015 60 180 5.0 8.0 0.00 0.00 0.00 91
20260507010831 59 200 4.0 6.0 0.00 0.00 0.00 91
20260507005631 59 215 3.0 5.0 0.00 0.00 0.00 91
20260507004445 59 205 4.0 6.0 0.00 0.00 0.00 90
20260507003217 60 215 4.0 5.0 0.00 0.00 0.00 90
20260507002024 60 217 3.0 4.0 0.00 0.00 0.00 90
20260507000815 60 205 3.0 4.0 0.00 0.00 0.00 90
20260506235621 60 184 4.0 9.0 0.00 0.00 0.00 90
20260506234427 60 163 4.0 6.0 0.00 0.00 0.00 90
20260506233219 60 159 5.0 10.0 0.00 0.00 0.00 90
20260506232024 60 178 5.0 7.0 0.00 0.00 0.00 90
20260506230837 60 171 4.0 6.0 0.00 0.00 0.00 90
20260506225617 60 205 4.0 6.0 0.00 0.00 0.00 89
20260506224415 59 190 3.0 6.0 0.00 0.00 0.00 89
20260506223241 59 187 4.0 6.0 0.00 0.00 0.00 89
20260506222024 59 204 3.0 3.0 0.00 0.00 0.00 88
20260506220830 59 147 4.0 7.0 0.00 0.00 0.00 88
20260506214417 59 176 3.0 6.0 0.00 0.00 0.00 88
20260506213221 59 153 3.0 4.0 0.00 0.00 0.00 88
20260506212104 59 193 5.0 11.0 0.00 0.00 0.00 88
20260506210821 59 197 4.0 8.0 0.00 0.00 0.00 88
20260506205647 59 160 7.0 15.0 0.00 0.00 0.00 88
20260506204430 59 147 7.0 13.0 0.00 0.00 0.00 88
20260506203217 58 200 6.0 9.0 0.00 0.00 0.00 87